{"data":{"norad_id":60921,"epoch":"2026-09-21T21:25:04.830528Z","epoch_age_seconds":68314,"freshness":"FRESH","line1":"1 60921U 24154U   26264.89241702 -.00000748  00000+0 -12323-4 0  9992","line2":"2 60921  53.1610  91.1376 0001624  95.7248 264.3939 15.31694512116406","mean_motion":15.31694512,"eccentricity":0.0001624,"inclination_deg":53.161,"raan_deg":91.1376,"arg_perigee_deg":95.7248,"mean_anomaly_deg":264.3939,"bstar":-1.2323e-5,"rev_number":11640,"period_min":94.013524806571,"perigee_km":469.64409443611,"apogee_km":471.86861499773,"semimajor_km":6848.8933547169,"source":"CELESTRAK","updated_at":"2026-09-22T09:00:49.287184Z"}}